SPMKL EPKT-EPKT

Flight info

Callsign SPMKL
Flight time 1h 32m
Altitude 6000
Route KUKAM DCT KAK STAY1/0200 KAK DCT KAX
Aircraft SF50/L-SDGRWY/L

Departure

Time 2026-05-05 18:37
Airport Katowice Wojciech Korfanty International Airport (EPKT)

Arrival

Time 2026-05-05 20:10
Airport Katowice Wojciech Korfanty International Airport (EPKT)
Time Latitude Longitude Altitude Speed Heading
2026-05-05 18:21 50.47126 19.09967 1011 ft 0 kts 180°
2026-05-05 18:33 50.47123 19.09963 1011 ft 0 kts 253°
2026-05-05 18:34 50.47130 19.09960 1011 ft 2 kts
2026-05-05 18:34 50.47155 19.09967 1010 ft 4 kts
2026-05-05 18:34 50.47196 19.09966 1009 ft 6 kts
2026-05-05 18:34 50.47230 19.09986 1008 ft 4 kts 90°
2026-05-05 18:35 50.47246 19.10041 1009 ft 8 kts 50°
2026-05-05 18:35 50.47291 19.10134 1009 ft 11 kts 52°
2026-05-05 18:35 50.47332 19.10217 1008 ft 8 kts 52°
2026-05-05 18:35 50.47363 19.10280 1007 ft 5 kts 51°
2026-05-05 18:36 50.47370 19.10293 1007 ft 0 kts 51°
2026-05-05 18:36 50.47372 19.10296 1007 ft 0 kts 52°
2026-05-05 18:36 50.47385 19.10323 1007 ft 8 kts 52°
2026-05-05 18:36 50.47446 19.10435 1006 ft 16 kts 33°
2026-05-05 18:37 50.47557 19.10447 1004 ft 16 kts 348°
2026-05-05 18:37 50.47597 19.10244 1001 ft 45 kts 267°
2026-05-05 18:37 50.47600 19.09393 1148 ft 97 kts 268°
2026-05-05 18:37 50.47632 19.08291 1712 ft 107 kts 269°
2026-05-05 18:38 50.47669 19.07138 2183 ft 109 kts 269°
2026-05-05 18:38 50.47708 19.05939 2646 ft 111 kts 269°
2026-05-05 18:38 50.47745 19.04616 2966 ft 138 kts 269°
2026-05-05 18:38 50.47781 19.02992 3426 ft 157 kts 269°
2026-05-05 18:39 50.47815 19.01264 4039 ft 164 kts 269°
2026-05-05 18:39 50.47609 18.99521 4644 ft 168 kts 237°
2026-05-05 18:39 50.46623 18.98454 4929 ft 191 kts 192°
2026-05-05 18:39 50.45275 18.98863 5206 ft 206 kts 154°
2026-05-05 18:40 50.43998 18.99955 5460 ft 212 kts 156°
2026-05-05 18:40 50.42683 19.01028 5713 ft 216 kts 154°
2026-05-05 18:40 50.41359 19.02160 5945 ft 220 kts 148°
2026-05-05 18:40 50.40467 19.04123 5996 ft 227 kts 107°
2026-05-05 18:41 50.40138 19.06555 5989 ft 227 kts 107°
2026-05-05 18:41 50.39769 19.08968 5987 ft 227 kts 105°
2026-05-05 18:41 50.39417 19.11373 5992 ft 225 kts 105°
2026-05-05 18:41 50.39064 19.13784 6011 ft 231 kts 105°
2026-05-05 18:42 50.38676 19.16392 6019 ft 257 kts 105°
2026-05-05 18:42 50.38256 19.19196 6017 ft 264 kts 105°
2026-05-05 18:42 50.37835 19.21999 6013 ft 270 kts 105°
2026-05-05 18:42 50.37392 19.24924 6015 ft 276 kts 105°
2026-05-05 18:43 50.36940 19.27908 6015 ft 278 kts 105°
2026-05-05 18:43 50.36489 19.30865 6015 ft 278 kts 105°
2026-05-05 18:43 50.36038 19.33821 6015 ft 280 kts 105°
2026-05-05 18:43 50.35580 19.36808 6014 ft 281 kts 105°
2026-05-05 18:44 50.35126 19.39761 6013 ft 278 kts 105°
2026-05-05 18:44 50.34671 19.42710 6013 ft 277 kts 105°
2026-05-05 18:44 50.34217 19.45644 6014 ft 276 kts 105°
2026-05-05 18:44 50.33760 19.48576 6014 ft 276 kts 105°
2026-05-05 18:45 50.33301 19.51504 6014 ft 276 kts 105°
2026-05-05 18:45 50.32840 19.54426 6014 ft 276 kts 105°
2026-05-05 18:45 50.32379 19.57329 6014 ft 276 kts 105°
2026-05-05 18:45 50.31903 19.60306 6014 ft 276 kts 105°
2026-05-05 18:46 50.31437 19.63208 6014 ft 276 kts 105°
2026-05-05 18:46 50.30969 19.66111 6014 ft 276 kts 105°
2026-05-05 18:46 50.30489 19.69076 6013 ft 276 kts 105°
2026-05-05 18:46 50.30017 19.71992 6013 ft 278 kts 105°
2026-05-05 18:47 50.29539 19.74938 6013 ft 278 kts 105°
2026-05-05 18:47 50.29065 19.77856 6013 ft 277 kts 105°
2026-05-05 18:47 50.28590 19.80778 6013 ft 277 kts 105°
2026-05-05 18:47 50.28110 19.83731 6013 ft 277 kts 105°
2026-05-05 18:48 50.27629 19.86688 6013 ft 277 kts 105°
2026-05-05 18:48 50.27154 19.89610 6013 ft 277 kts 105°
2026-05-05 18:48 50.26669 19.92586 6013 ft 277 kts 105°
2026-05-05 18:48 50.26195 19.95499 6013 ft 277 kts 105°
2026-05-05 18:49 50.25743 19.98271 6013 ft 277 kts 105°
2026-05-05 18:49 50.25262 20.01218 6013 ft 277 kts 105°
2026-05-05 18:49 50.24791 20.04102 6013 ft 277 kts 105°
2026-05-05 18:49 50.24163 20.06922 5954 ft 261 kts 124°
2026-05-05 18:50 50.22844 20.08572 5835 ft 238 kts 163°
2026-05-05 18:50 50.21259 20.08531 5693 ft 223 kts 200°
2026-05-05 18:50 50.19806 20.07771 5469 ft 217 kts 197°
2026-05-05 18:50 50.18328 20.07260 5215 ft 215 kts 183°
2026-05-05 18:51 50.16867 20.07573 4971 ft 214 kts 172°
2026-05-05 18:51 50.15381 20.07969 4718 ft 218 kts 169°
2026-05-05 18:51 50.13873 20.08408 4466 ft 220 kts 181°
2026-05-05 18:51 50.12500 20.07572 4265 ft 211 kts 225°
2026-05-05 18:52 50.11652 20.05760 4075 ft 207 kts 244°
2026-05-05 18:52 50.11263 20.03606 3835 ft 206 kts 258°
2026-05-05 18:52 50.10933 20.01450 3577 ft 202 kts 257°
2026-05-05 18:52 50.10662 19.99326 3314 ft 199 kts 257°
2026-05-05 18:53 50.10354 19.97197 3044 ft 196 kts 258°
2026-05-05 18:53 50.10078 19.95117 2778 ft 192 kts 257°
2026-05-05 18:53 50.09797 19.93104 2517 ft 187 kts 258°
2026-05-05 18:53 50.09524 19.91135 2264 ft 183 kts 257°
2026-05-05 18:54 50.09261 19.89192 2013 ft 180 kts 258°
2026-05-05 18:54 50.08993 19.87314 1773 ft 177 kts 257°
2026-05-05 18:54 50.08747 19.85461 1538 ft 174 kts 257°
2026-05-05 18:54 50.08491 19.83666 1307 ft 161 kts 259°
2026-05-05 18:55 50.08267 19.82106 1114 ft 131 kts 255°
2026-05-05 18:55 50.08110 19.80938 978 ft 85 kts 258°
2026-05-05 18:55 50.07999 19.80120 839 ft 72 kts 257°
2026-05-05 18:55 50.07902 19.79423 795 ft 55 kts 257°
2026-05-05 18:56 50.07788 19.78588 903 ft 103 kts 259°
2026-05-05 18:56 50.07670 19.77443 1622 ft 102 kts 264°
2026-05-05 18:56 50.07567 19.76337 2191 ft 114 kts 256°
2026-05-05 18:56 50.07370 19.74992 2621 ft 148 kts 258°
2026-05-05 18:57 50.07153 19.73440 3562 ft 152 kts 257°
2026-05-05 18:57 50.06843 19.71895 4443 ft 159 kts 238°
2026-05-05 18:57 50.05853 19.70790 4766 ft 197 kts 194°
2026-05-05 18:57 50.04433 19.71048 5000 ft 224 kts 163°
2026-05-05 18:58 50.02830 19.71768 5021 ft 250 kts 167°
2026-05-05 18:58 50.01096 19.72532 5018 ft 264 kts 166°
2026-05-05 18:58 49.99316 19.73307 5014 ft 267 kts 166°
2026-05-05 18:58 49.97618 19.74056 5010 ft 235 kts 166°
2026-05-05 18:59 49.96117 19.74723 5007 ft 223 kts 166°
2026-05-05 18:59 49.94632 19.75563 5013 ft 235 kts 149°
2026-05-05 18:59 49.93633 19.77634 5024 ft 252 kts 108°
2026-05-05 18:59 49.93659 19.80386 5023 ft 263 kts 75°
2026-05-05 19:00 49.94172 19.83144 5015 ft 269 kts 77°
2026-05-05 19:00 49.94657 19.85977 5014 ft 272 kts 75°
2026-05-05 19:00 49.95155 19.88827 5013 ft 274 kts 75°
2026-05-05 19:00 49.95660 19.91715 5013 ft 276 kts 75°
2026-05-05 19:01 49.96162 19.94592 5013 ft 276 kts 75°
2026-05-05 19:01 49.96670 19.97508 5013 ft 277 kts 75°
2026-05-05 19:01 49.97169 20.00374 5013 ft 277 kts 75°
2026-05-05 19:01 49.97675 20.03280 5013 ft 277 kts 75°
2026-05-05 19:02 49.98181 20.06190 5013 ft 277 kts 75°
2026-05-05 19:02 49.98679 20.09048 5013 ft 277 kts 75°
2026-05-05 19:02 49.99181 20.11940 5013 ft 277 kts 75°
2026-05-05 19:02 50.00050 20.14619 5017 ft 277 kts 45°
2026-05-05 19:03 50.01699 20.16030 5030 ft 274 kts
2026-05-05 19:03 50.03579 20.15877 5041 ft 271 kts 347°
2026-05-05 19:03 50.05323 20.14779 5008 ft 270 kts 326°
2026-05-05 19:03 50.06969 20.13372 4788 ft 263 kts 333°
2026-05-05 19:04 50.08524 20.12051 4537 ft 251 kts 328°
2026-05-05 19:04 50.10043 20.10781 4284 ft 240 kts 328°
2026-05-05 19:04 50.11082 20.08984 4169 ft 216 kts 289°
2026-05-05 19:04 50.11447 20.06810 4119 ft 201 kts 279°
2026-05-05 19:05 50.11360 20.04624 3948 ft 205 kts 255°
2026-05-05 19:05 50.11080 20.02433 3697 ft 205 kts 260°
2026-05-05 19:05 50.10777 20.00283 3435 ft 201 kts 256°
2026-05-05 19:05 50.10504 19.98186 3170 ft 193 kts 258°
2026-05-05 19:06 50.10214 19.96182 2913 ft 187 kts 257°
2026-05-05 19:06 50.09953 19.94196 2658 ft 182 kts 257°
2026-05-05 19:06 50.09682 19.92292 2412 ft 178 kts 258°
2026-05-05 19:06 50.09430 19.90428 2172 ft 175 kts 257°
2026-05-05 19:07 50.09172 19.88571 1934 ft 172 kts 258°
2026-05-05 19:07 50.09008 19.87371 1780 ft 167 kts 257°
2026-05-05 19:07 50.08697 19.85102 1490 ft 152 kts 258°
2026-05-05 19:07 50.08488 19.83669 1315 ft 117 kts 258°
2026-05-05 19:08 50.08341 19.82558 1161 ft 94 kts 256°
2026-05-05 19:08 50.08222 19.81705 1055 ft 75 kts 259°
2026-05-05 19:08 50.08107 19.80909 960 ft 77 kts 257°
2026-05-05 19:08 50.07996 19.80080 857 ft 78 kts 257°
2026-05-05 19:09 50.07893 19.79340 796 ft 58 kts 258°
2026-05-05 19:09 50.07807 19.78720 835 ft 76 kts 257°
2026-05-05 19:09 50.07693 19.77877 1392 ft 80 kts 255°
2026-05-05 19:09 50.07570 19.77067 1854 ft 78 kts 258°
2026-05-05 19:10 50.07437 19.76092 2073 ft 104 kts 257°
2026-05-05 19:10 50.07274 19.74919 2443 ft 119 kts 257°
2026-05-05 19:10 50.07095 19.73638 2941 ft 132 kts 257°
2026-05-05 19:10 50.06775 19.72132 3222 ft 156 kts 235°
2026-05-05 19:11 50.05841 19.71240 3490 ft 172 kts 189°
2026-05-05 19:11 50.04623 19.71591 3758 ft 186 kts 163°
2026-05-05 19:11 50.03330 19.72177 3986 ft 198 kts 166°
2026-05-05 19:11 50.01962 19.72811 4017 ft 206 kts 166°
2026-05-05 19:12 50.00573 19.73470 4014 ft 210 kts 165°
2026-05-05 19:12 49.99173 19.74135 4014 ft 209 kts 165°
2026-05-05 19:12 49.97809 19.74787 4011 ft 199 kts 165°
2026-05-05 19:12 49.96514 19.75408 4011 ft 192 kts 165°
2026-05-05 19:13 49.95244 19.76020 4012 ft 188 kts 165°
2026-05-05 19:13 49.94004 19.76619 4012 ft 185 kts 165°
2026-05-05 19:13 49.92778 19.77235 4012 ft 183 kts 159°
2026-05-05 19:13 49.91857 19.78662 4153 ft 211 kts 113°
2026-05-05 19:14 49.91814 19.81036 4434 ft 241 kts 75°
2026-05-05 19:14 49.92326 19.83645 4701 ft 260 kts 69°
2026-05-05 19:14 49.93103 19.86274 4952 ft 272 kts 65°
2026-05-05 19:14 49.93870 19.88990 5016 ft 275 kts 65°
2026-05-05 19:15 49.94667 19.91728 5014 ft 279 kts 65°
2026-05-05 19:15 49.95459 19.94476 5014 ft 281 kts 65°
2026-05-05 19:15 49.96253 19.97232 5014 ft 282 kts 65°
2026-05-05 19:15 49.97058 20.00021 5013 ft 282 kts 65°
2026-05-05 19:16 49.97863 20.02815 5013 ft 281 kts 65°
2026-05-05 19:16 49.98656 20.05571 5013 ft 279 kts 65°
2026-05-05 19:16 49.99446 20.08314 5013 ft 278 kts 65°
2026-05-05 19:16 50.00243 20.11041 5014 ft 277 kts 62°
2026-05-05 19:17 50.01530 20.13243 5019 ft 274 kts 32°
2026-05-05 19:17 50.03090 20.14963 5011 ft 274 kts 36°
2026-05-05 19:17 50.04603 20.16715 4791 ft 270 kts 34°
2026-05-05 19:17 50.06114 20.18453 4540 ft 269 kts 35°
2026-05-05 19:18 50.07614 20.20172 4290 ft 268 kts 35°
2026-05-05 19:18 50.09114 20.21896 4058 ft 260 kts 34°
2026-05-05 19:18 50.10696 20.22882 4013 ft 239 kts 360°
2026-05-05 19:18 50.12173 20.22118 4018 ft 221 kts 318°
2026-05-05 19:19 50.12975 20.20183 4018 ft 211 kts 293°
2026-05-05 19:19 50.13639 20.18153 4013 ft 206 kts 296°
2026-05-05 19:19 50.14037 20.16066 4015 ft 201 kts 265°
2026-05-05 19:19 50.13714 20.13946 4016 ft 199 kts 258°
2026-05-05 19:20 50.13435 20.11819 4014 ft 197 kts 256°
2026-05-05 19:20 50.13110 20.09782 4012 ft 191 kts 256°
2026-05-05 19:20 50.12790 20.07782 3826 ft 191 kts 256°
2026-05-05 19:20 50.12457 20.05777 3573 ft 188 kts 256°
2026-05-05 19:21 50.12126 20.03820 3323 ft 186 kts 255°
2026-05-05 19:21 50.11793 20.01889 3080 ft 183 kts 255°
2026-05-05 19:21 50.11469 20.00025 3010 ft 173 kts 255°
2026-05-05 19:21 50.11152 19.98223 3011 ft 167 kts 255°
2026-05-05 19:22 50.10846 19.96486 2918 ft 164 kts 255°
2026-05-05 19:22 50.10545 19.94794 2720 ft 163 kts 255°
2026-05-05 19:22 50.10240 19.93084 2519 ft 163 kts 255°
2026-05-05 19:22 50.09936 19.91384 2317 ft 162 kts 255°
2026-05-05 19:23 50.09632 19.89690 2101 ft 162 kts 255°
2026-05-05 19:23 50.09327 19.87994 1875 ft 163 kts 255°
2026-05-05 19:23 50.09020 19.86286 1648 ft 163 kts 255°
2026-05-05 19:23 50.08711 19.84576 1426 ft 164 kts 255°
2026-05-05 19:24 50.08429 19.82993 1261 ft 135 kts 256°
2026-05-05 19:24 50.08227 19.81691 1065 ft 108 kts 257°
2026-05-05 19:24 50.08086 19.80727 924 ft 73 kts 258°
2026-05-05 19:24 50.07978 19.79980 816 ft 67 kts 258°
2026-05-05 19:25 50.07896 19.79376 795 ft 51 kts 259°
2026-05-05 19:25 50.07782 19.78547 1118 ft 91 kts 258°
2026-05-05 19:25 50.07649 19.77609 1747 ft 91 kts 257°
2026-05-05 19:25 50.07496 19.76576 2122 ft 102 kts 258°
2026-05-05 19:26 50.07331 19.75452 2524 ft 110 kts 258°
2026-05-05 19:26 50.07148 19.74200 2889 ft 128 kts 258°
2026-05-05 19:26 50.06947 19.72811 3362 ft 136 kts 258°
2026-05-05 19:26 50.06739 19.71365 3812 ft 140 kts 258°
2026-05-05 19:27 50.06520 19.69831 4079 ft 150 kts 258°
2026-05-05 19:27 50.06286 19.68198 4337 ft 158 kts 258°
2026-05-05 19:27 50.06195 19.66469 4592 ft 166 kts 283°
2026-05-05 19:27 50.06913 19.65070 4854 ft 176 kts 330°
2026-05-05 19:28 50.08144 19.64899 5016 ft 192 kts 14°
2026-05-05 19:28 50.09320 19.66076 5022 ft 209 kts 38°
2026-05-05 19:28 50.10515 19.67479 5016 ft 220 kts 36°
2026-05-05 19:28 50.11763 19.68970 5015 ft 227 kts 36°
2026-05-05 19:29 50.13038 19.70475 5014 ft 232 kts 36°
2026-05-05 19:29 50.14322 19.71997 5014 ft 235 kts 36°
2026-05-05 19:29 50.15600 19.73625 5014 ft 237 kts 47°
2026-05-05 19:29 50.16251 19.75976 5019 ft 239 kts 78°
2026-05-05 19:30 50.16670 19.78497 5014 ft 240 kts 74°
2026-05-05 19:30 50.17105 19.81085 5015 ft 252 kts 75°
2026-05-05 19:30 50.17563 19.83766 5016 ft 263 kts 75°
2026-05-05 19:30 50.18039 19.86583 5015 ft 270 kts 75°
2026-05-05 19:31 50.18529 19.89475 4946 ft 274 kts 75°
2026-05-05 19:31 50.19015 19.92348 4700 ft 277 kts 75°
2026-05-05 19:31 50.19505 19.95252 4448 ft 274 kts 75°
2026-05-05 19:31 50.19982 19.98086 4197 ft 271 kts 75°
2026-05-05 19:32 50.20460 20.00929 4025 ft 263 kts 75°
2026-05-05 19:32 50.20915 20.03646 4010 ft 257 kts 75°
2026-05-05 19:32 50.21371 20.06367 4014 ft 260 kts 75°
2026-05-05 19:32 50.21830 20.09106 4014 ft 261 kts 75°
2026-05-05 19:33 50.22289 20.11850 4014 ft 262 kts 75°
2026-05-05 19:33 50.22751 20.14613 4014 ft 263 kts 75°
2026-05-05 19:33 50.23215 20.17390 4014 ft 263 kts 75°
2026-05-05 19:33 50.23676 20.20148 4014 ft 264 kts 75°
2026-05-05 19:34 50.24044 20.22949 4014 ft 263 kts 89°
2026-05-05 19:34 50.23499 20.25646 4021 ft 261 kts 128°
2026-05-05 19:34 50.22057 20.27241 4021 ft 256 kts 165°
2026-05-05 19:35 50.18967 20.25531 4021 ft 248 kts 231°
2026-05-05 19:35 50.17871 20.23450 4015 ft 248 kts 233°
2026-05-05 19:35 50.16958 20.21152 4014 ft 248 kts 238°
2026-05-05 19:35 50.15998 20.18925 4014 ft 248 kts 238°
2026-05-05 19:36 50.15087 20.16631 4014 ft 248 kts 237°
2026-05-05 19:36 50.14139 20.14351 4014 ft 248 kts 239°
2026-05-05 19:36 50.13208 20.12077 4014 ft 248 kts 237°
2026-05-05 19:36 50.12318 20.09908 4011 ft 226 kts 239°
2026-05-05 19:37 50.11807 20.07716 4013 ft 214 kts 261°
2026-05-05 19:37 50.11494 20.05460 4012 ft 211 kts 254°
2026-05-05 19:37 50.11185 20.03192 3785 ft 219 kts 260°
2026-05-05 19:37 50.10851 20.00829 3503 ft 217 kts 257°
2026-05-05 19:38 50.10558 19.98573 3220 ft 209 kts 258°
2026-05-05 19:38 50.10242 19.96395 2941 ft 205 kts 258°
2026-05-05 19:38 50.09960 19.94231 2664 ft 200 kts 258°
2026-05-05 19:38 50.09662 19.92158 2395 ft 188 kts 259°
2026-05-05 19:39 50.09401 19.90212 2143 ft 176 kts 257°
2026-05-05 19:39 50.09149 19.88393 1909 ft 168 kts 259°
2026-05-05 19:39 50.08902 19.86659 1686 ft 162 kts 257°
2026-05-05 19:39 50.08680 19.84953 1472 ft 155 kts 258°
2026-05-05 19:40 50.08456 19.83471 1279 ft 130 kts 260°
2026-05-05 19:40 50.08301 19.82265 1150 ft 89 kts 255°
2026-05-05 19:40 50.08172 19.81387 1022 ft 80 kts 259°
2026-05-05 19:40 50.08063 19.80567 908 ft 75 kts 258°
2026-05-05 19:41 50.07951 19.79772 811 ft 73 kts 258°
2026-05-05 19:41 50.07863 19.79133 795 ft 57 kts 258°
2026-05-05 19:41 50.07728 19.78165 1039 ft 113 kts 258°
2026-05-05 19:41 50.07574 19.77016 1645 ft 112 kts 258°
2026-05-05 19:42 50.07358 19.75894 2198 ft 116 kts 258°
2026-05-05 19:42 50.07158 19.74552 2687 ft 141 kts 255°
2026-05-05 19:42 50.06883 19.72934 3081 ft 163 kts 256°
2026-05-05 19:42 50.06584 19.71131 3349 ft 176 kts 256°
2026-05-05 19:43 50.06279 19.69271 3599 ft 182 kts 256°
2026-05-05 19:43 50.05966 19.67306 3854 ft 188 kts 256°
2026-05-05 19:43 50.05650 19.65324 4105 ft 191 kts 256°
2026-05-05 19:43 50.05393 19.63259 4359 ft 194 kts 271°
2026-05-05 19:44 50.05958 19.61398 4618 ft 198 kts 318°
2026-05-05 19:44 50.07248 19.60761 4876 ft 204 kts
2026-05-05 19:44 50.08518 19.61747 5018 ft 213 kts 47°
2026-05-05 19:44 50.09379 19.63708 5018 ft 223 kts 55°
2026-05-05 19:45 50.10326 19.65794 5017 ft 244 kts 56°
2026-05-05 19:45 50.11319 19.68049 5016 ft 257 kts 55°
2026-05-05 19:45 50.12350 19.70373 5015 ft 265 kts 55°
2026-05-05 19:45 50.13412 19.72768 5014 ft 270 kts 55°
2026-05-05 19:46 50.14497 19.75221 5014 ft 273 kts 55°
2026-05-05 19:46 50.15583 19.77674 5013 ft 275 kts 55°
2026-05-05 19:46 50.16664 19.80117 5013 ft 276 kts 55°
2026-05-05 19:46 50.17767 19.82612 5013 ft 277 kts 55°
2026-05-05 19:47 50.18849 19.85072 5014 ft 277 kts 57°
2026-05-05 19:47 50.19527 19.87894 5017 ft 277 kts 79°
2026-05-05 19:47 50.19990 19.90805 5014 ft 277 kts 75°
2026-05-05 19:47 50.20466 19.93727 5013 ft 277 kts 76°
2026-05-05 19:48 50.20950 19.96659 5013 ft 277 kts 76°
2026-05-05 19:48 50.21422 19.99565 4938 ft 272 kts 76°
2026-05-05 19:48 50.21884 20.02384 4812 ft 266 kts 76°
2026-05-05 19:48 50.22343 20.05202 4685 ft 269 kts 76°
2026-05-05 19:49 50.22803 20.08033 4561 ft 268 kts 76°
2026-05-05 19:49 50.23082 20.09947 4476 ft 266 kts 83°
2026-05-05 19:49 50.22440 20.13498 4320 ft 260 kts 132°
2026-05-05 19:49 50.20934 20.14944 4207 ft 255 kts 166°
2026-05-05 19:50 50.19207 20.15632 4085 ft 249 kts 165°
2026-05-05 19:50 50.17616 20.16334 4013 ft 230 kts 166°
2026-05-05 19:50 50.16092 20.16610 4012 ft 213 kts 193°
2026-05-05 19:50 50.14931 20.15368 4018 ft 203 kts 234°
2026-05-05 19:51 50.14305 20.13463 3930 ft 193 kts 248°
2026-05-05 19:51 50.13858 20.11499 3730 ft 186 kts 252°
2026-05-05 19:51 50.13456 20.09540 3704 ft 194 kts 247°
2026-05-05 19:51 50.12838 20.07615 3683 ft 198 kts 253°
2026-05-05 19:52 50.12515 20.05530 3535 ft 199 kts 253°
2026-05-05 19:52 50.12120 20.03474 3289 ft 201 kts 255°
2026-05-05 19:52 50.11747 20.01370 3038 ft 199 kts 253°
2026-05-05 19:52 50.11377 19.99322 3010 ft 189 kts 254°
2026-05-05 19:53 50.11026 19.97378 3011 ft 182 kts 254°
2026-05-05 19:53 50.10614 19.95528 2906 ft 181 kts 253°
2026-05-05 19:53 50.10310 19.93634 2684 ft 177 kts 255°
2026-05-05 19:53 50.09985 19.91816 2459 ft 172 kts 255°
2026-05-05 19:54 50.09677 19.90036 2231 ft 167 kts 255°
2026-05-05 19:54 50.09376 19.88313 2004 ft 163 kts 255°
2026-05-05 19:54 50.09080 19.86614 1776 ft 160 kts 255°
2026-05-05 19:54 50.08794 19.84973 1552 ft 154 kts 255°
2026-05-05 19:55 50.08516 19.83387 1327 ft 149 kts 255°
2026-05-05 19:55 50.08263 19.81940 1116 ft 118 kts 255°
2026-05-05 19:55 50.08131 19.81015 982 ft 71 kts 258°
2026-05-05 19:55 50.08024 19.80277 867 ft 71 kts 257°
2026-05-05 19:56 50.07919 19.79543 797 ft 59 kts 258°
2026-05-05 19:56 50.07836 19.78932 799 ft 82 kts 258°
2026-05-05 19:56 50.07702 19.78045 1424 ft 92 kts 256°
2026-05-05 19:56 50.07561 19.77017 2097 ft 105 kts 258°
2026-05-05 19:57 50.07406 19.75891 2305 ft 119 kts 258°
2026-05-05 19:57 50.07285 19.75003 2360 ft 131 kts 258°
2026-05-05 19:57 50.07018 19.73066 2549 ft 139 kts 258°
2026-05-05 19:57 50.06815 19.71588 2710 ft 141 kts 258°
2026-05-05 19:58 50.06603 19.70041 2944 ft 156 kts 258°
2026-05-05 19:58 50.06387 19.68467 3828 ft 152 kts 258°
2026-05-05 19:58 50.06230 19.66772 4347 ft 171 kts 274°
2026-05-05 19:58 50.06768 19.65055 4871 ft 188 kts 306°
2026-05-05 19:59 50.07532 19.63330 5383 ft 200 kts 302°
2026-05-05 19:59 50.08341 19.61511 5878 ft 210 kts 303°
2026-05-05 19:59 50.09247 19.59570 6020 ft 233 kts 312°
2026-05-05 19:59 50.10765 19.58391 6093 ft 255 kts 352°
2026-05-05 20:00 50.12439 19.58163 6930 ft 237 kts 350°
2026-05-05 20:00 50.14087 19.57892 7476 ft 235 kts 353°
2026-05-05 20:00 50.15635 19.57598 8214 ft 225 kts 349°
2026-05-05 20:00 50.17183 19.57307 8809 ft 224 kts 350°
2026-05-05 20:01 50.18737 19.56989 9354 ft 225 kts 350°
2026-05-05 20:01 50.20293 19.56686 9971 ft 221 kts 349°
2026-05-05 20:01 50.21806 19.56385 10562 ft 220 kts 349°
2026-05-05 20:01 50.23309 19.56085 11097 ft 220 kts 349°
2026-05-05 20:02 50.24836 19.55782 11606 ft 222 kts 349°
2026-05-05 20:02 50.26412 19.55465 11709 ft 231 kts 349°
2026-05-05 20:02 50.28024 19.55146 11561 ft 237 kts 349°
2026-05-05 20:02 50.29682 19.54815 11268 ft 242 kts 350°
2026-05-05 20:03 50.31355 19.54481 10633 ft 244 kts 350°
2026-05-05 20:03 50.33023 19.54149 9883 ft 242 kts 350°
2026-05-05 20:03 50.34688 19.53817 9125 ft 241 kts 350°
2026-05-05 20:03 50.36337 19.53486 8370 ft 239 kts 349°
2026-05-05 20:04 50.37819 19.52520 7620 ft 231 kts 317°
2026-05-05 20:04 50.39011 19.50872 6896 ft 231 kts 318°
2026-05-05 20:04 50.40211 19.49295 6381 ft 222 kts 317°
2026-05-05 20:04 50.41361 19.47761 5882 ft 213 kts 317°
2026-05-05 20:05 50.42454 19.46306 5379 ft 200 kts 317°
2026-05-05 20:05 50.43494 19.44925 4875 ft 192 kts 317°
2026-05-05 20:05 50.44491 19.43595 4376 ft 188 kts 317°
2026-05-05 20:05 50.45459 19.42301 4031 ft 176 kts 317°
2026-05-05 20:06 50.46360 19.41102 4005 ft 169 kts 317°
2026-05-05 20:06 50.47263 19.39747 4018 ft 180 kts 301°
2026-05-05 20:06 50.47528 19.37895 4019 ft 175 kts 263°
2026-05-05 20:06 50.47507 19.35979 4014 ft 177 kts 270°
2026-05-05 20:07 50.47517 19.34029 3960 ft 181 kts 265°
2026-05-05 20:07 50.47510 19.31988 3740 ft 189 kts 267°
2026-05-05 20:07 50.47517 19.29895 3496 ft 193 kts 267°
2026-05-05 20:07 50.47527 19.27790 3242 ft 196 kts 267°
2026-05-05 20:08 50.47536 19.25615 2974 ft 198 kts 268°
2026-05-05 20:08 50.47546 19.23452 2704 ft 200 kts 268°
2026-05-05 20:08 50.47555 19.21244 2428 ft 201 kts 268°
2026-05-05 20:08 50.47564 19.19046 2153 ft 201 kts 268°
2026-05-05 20:09 50.47572 19.16849 1880 ft 202 kts 268°
2026-05-05 20:09 50.47580 19.14604 1603 ft 199 kts 268°
2026-05-05 20:09 50.47588 19.12521 1341 ft 169 kts 268°
2026-05-05 20:09 50.47594 19.10923 1168 ft 112 kts 266°
2026-05-05 20:10 50.47602 19.09997 999 ft 67 kts 265°
2026-05-05 20:10 50.47597 19.09503 984 ft 28 kts 273°
2026-05-05 20:10 50.47552 19.09392 983 ft 9 kts 189°
2026-05-05 20:10 50.47507 19.09391 983 ft 3 kts 181°
2026-05-05 20:11 50.47476 19.09391 984 ft 9 kts 178°
2026-05-05 20:11 50.47374 19.09387 988 ft 19 kts 181°
2026-05-05 20:11 50.47245 19.09404 992 ft 15 kts 141°
2026-05-05 20:11 50.47230 19.09568 997 ft 17 kts 91°
2026-05-05 20:12 50.47218 19.09643 999 ft 7 kts 187°
2026-05-05 20:12 50.47144 19.09641 1001 ft 9 kts 179°
2026-05-05 20:12 50.47129 19.09641 1001 ft 0 kts 180°